QPF
0.01 0.01 0.01 0.01 0.01 0.01 0.01 0.01 0.01 0.01 0.01 0.00 0.00 0.00 0.01 0.02 0.03 0.02 0.02 0.01 0.02 0.02 0.02 0.01 0.00 0.00 0.01 0.00 0.00 0.01 0.01 0.02 0.02 0.01 0.01 0.02 0.01 0.01 0.01 0.00 0.00 0.00 0.00
0.01 0.01 0.01 0.01 0.01 0.01 0.01 0.01 0.01 0.00 0.01 0.01 0.01 0.01 0.01 0.01 0.02 0.01 0.01 0.01 0.01 0.01 0.01 0.01 0.01 0.00 0.00 0.00 0.01 0.01 0.02 0.03 0.01 0.00 0.00 0.01 0.01 0.02 0.01 0.01 0.00 0.00 0.00
0.01 0.01 0.01 0.01 0.02 0.02 0.02 0.02 0.02 0.01 0.01 0.01 0.01 0.00 0.00 0.01 0.02 0.01 0.01 0.00 0.01 0.01 0.01 0.00 0.00 0.00 0.00 0.00 0.01 0.01 0.01 0.01 0.01 0.01 0.00 0.00 0.00 0.01 0.02 0.01 0.01 0.00 0.00
0.01 0.01 0.01 0.01 0.01 0.02 0.02 0.02 0.02 0.02 0.01 0.01 0.01 0.01 0.00 0.01 0.02 0.01 0.01 0.01 0.01 0.00 0.00 0.00 0.00 0.00 0.00 0.00 0.01 0.01 0.01 0.01 0.01 0.01 0.01 0.01 0.00 0.01 0.01 0.01 0.01 0.01 0.00
0.01 0.01 0.00 0.00 0.01 0.01 0.01 0.01 0.01 0.01 0.01 0.01 0.01 0.01 0.01 0.01 0.01 0.01 0.01 0.00 0.00 0.01 0.00 0.00 0.00 0.00 0.01 0.01 0.01 0.01 0.01 0.01 0.01 0.01 0.01 0.01 0.01 0.01 0.01 0.01 0.01 0.01 0.00
0.01 0.01 0.00 0.00 0.01 0.01 0.01 0.01 0.02 0.02 0.02 0.01 0.01 0.01 0.01 0.01 0.01 0.00 0.00 0.00 0.00 0.00 0.00 0.00 0.00 0.01 0.01 0.01 0.01 0.01 0.01 0.01 0.01 0.01 0.01 0.01 0.02 0.02 0.01 0.01 0.01 0.01 0.00
0.01 0.01 0.00 0.00 0.00 0.01 0.01 0.02 0.03 0.03 0.02 0.02 0.01 0.01 0.01 0.01 0.01 0.01 0.01 0.01 0.01 0.01 0.00 0.01 0.01 0.01 0.01 0.01 0.01 0.01 0.01 0.01 0.01 0.00 0.01 0.01 0.03 0.04 0.02 0.01 0.01 0.00 0.00
0.01 0.01 0.01 0.01 0.01 0.01 0.02 0.03 0.04 0.04 0.03 0.02 0.01 0.01 0.01 0.01 0.01 0.01 0.01 0.01 0.01 0.01 0.01 0.01 0.00 0.00 0.00 0.01 0.01 0.01 0.01 0.01 0.00 0.01 0.01 0.01 0.03 0.04 0.02 0.01 0.01 0.00 0.00
0.01 0.01 0.01 0.01 0.01 0.01 0.02 0.02 0.03 0.03 0.03 0.02 0.02 0.02 0.01 0.01 0.01 0.01 0.01 0.01 0.01 0.02 0.01 0.01 0.00 0.00 0.00 0.00 0.01 0.01 0.01 0.00 0.00 0.01 0.01 0.01 0.03 0.04 0.03 0.02 0.01 0.00 0.00
0.01 0.01 0.01 0.01 0.00 0.01 0.01 0.02 0.02 0.02 0.02 0.02 0.02 0.02 0.02 0.01 0.01 0.01 0.01 0.01 0.01 0.01 0.01 0.01 0.01 0.00 0.00 0.00 0.00 0.00 0.00 0.01 0.01 0.01 0.01 0.01 0.01 0.02 0.02 0.02 0.01 0.01 0.01
0.01 0.01 0.01 0.01 0.01 0.01 0.02 0.02 0.01 0.01 0.01 0.02 0.03 0.03 0.02 0.01 0.01 0.00 0.00 0.01 0.01 0.01 0.01 0.01 0.02 0.01 0.00 0.00 0.00 0.00 0.01 0.01 0.01 0.00 0.01 0.01 0.01 0.01 0.01 0.01 0.01 0.01 0.01
0.01 0.01 0.01 0.02 0.02 0.02 0.02 0.02 0.01 0.01 0.01 0.02 0.03 0.03 0.03 0.02 0.01 0.01 0.00 0.01 0.01 0.01 0.01 0.01 0.01 0.01 0.01 0.01 0.01 0.01 0.01 0.01 0.01 0.00 0.00 0.01 0.01 0.01 0.01 0.00 0.00 0.01 0.01
0.01 0.01 0.01 0.02 0.03 0.03 0.02 0.01 0.01 0.01 0.01 0.02 0.03 0.02 0.02 0.02 0.01 0.01 0.01 0.01 0.01 0.01 0.01 0.01 0.01 0.01 0.01 0.01 0.01 0.01 0.01 0.01 0.01 0.01 0.00 0.00 0.00 0.01 0.00 0.00 0.00 0.01 0.01
0.00 0.01 0.02 0.01 0.02 0.02 0.02 0.01 0.01 0.01 0.02 0.02 0.03 0.02 0.03 0.03 0.02 0.01 0.01 0.01 0.01 0.02 0.02 0.01 0.01 0.02 0.02 0.01 0.01 0.00 0.00 0.01 0.01 0.01 0.01 0.00 0.00 0.00 0.01 0.01 0.00 0.00 0.01
0.00 0.01 0.01 0.01 0.01 0.01 0.02 0.02 0.01 0.01 0.02 0.02 0.02 0.02 0.02 0.03 0.03 0.02 0.01 0.01 0.01 0.01 0.01 0.01 0.01 0.01 0.01 0.01 0.01 0.00 0.00 0.00 0.01 0.01 0.00 0.00 0.00 0.01 0.01 0.01 0.01 0.01 0.01
0.00 0.00 0.01 0.01 0.01 0.01 0.02 0.02 0.02 0.02 0.02 0.01 0.01 0.02 0.02 0.02 0.02 0.02 0.02 0.02 0.01 0.01 0.01 0.01 0.01 0.01 0.01 0.01 0.00 0.00 0.00 0.00 0.00 0.00 0.00 0.00 0.00 0.01 0.01 0.01 0.01 0.01 0.01
0.00 0.00 0.00 0.01 0.01 0.01 0.01 0.02 0.02 0.02 0.02 0.02 0.02 0.02 0.03 0.03 0.02 0.02 0.01 0.01 0.01 0.01 0.01 0.00 0.00 0.00 0.00 0.00 0.00 0.00 0.01 0.00 0.00 0.00 0.00 0.00 0.00 0.01 0.01 0.01 0.01 0.01 0.01
0.00 0.00 0.00 0.00 0.01 0.01 0.01 0.02 0.02 0.02 0.01 0.01 0.01 0.02 0.03 0.03 0.04 0.03 0.02 0.02 0.01 0.01 0.01 0.00 0.01 0.00 0.00 0.00 0.00 0.00 0.01 0.01 0.00 0.00 0.00 0.00 0.00 0.00 0.00 0.01 0.01 0.01 0.01
0.01 0.00 0.00 0.00 0.00 0.01 0.01 0.01 0.02 0.02 0.01 0.01 0.01 0.01 0.01 0.02 0.03 0.03 0.03 0.03 0.02 0.01 0.01 0.01 0.01 0.00 0.00 0.01 0.01 0.00 0.00 0.01 0.01 0.01 0.00 0.00 0.00 0.00 0.00 0.00 0.00 0.00 0.00
0.00 0.01 0.00 0.00 0.00 0.01 0.01 0.01 0.02 0.02 0.01 0.01 0.01 0.01 0.01 0.01 0.01 0.02 0.03 0.03 0.03 0.02 0.02 0.01 0.01 0.00 0.00 0.01 0.01 0.01 0.01 0.01 0.01 0.01 0.01 0.00 0.00 0.01 0.01 0.01 0.01 0.01 0.01
0.00 0.00 0.00 0.00 0.00 0.00 0.01 0.01 0.01 0.01 0.01 0.01 0.01 0.02 0.02 0.01 0.01 0.01 0.03 0.04 0.03 0.03 0.02 0.01 0.01 0.01 0.01 0.01 0.01 0.01 0.01 0.01 0.01 0.01 0.00 0.00 0.00 0.00 0.01 0.01 0.01 0.01 0.01
0.00 0.00 0.00 0.00 0.01 0.01 0.01 0.01 0.00 0.01 0.01 0.01 0.01 0.02 0.02 0.02 0.01 0.02 0.02 0.03 0.04 0.02 0.02 0.01 0.01 0.01 0.01 0.01 0.01 0.01 0.01 0.01 0.01 0.01 0.01 0.01 0.01 0.01 0.01 0.00 0.01 0.01 0.01
0.00 0.00 0.00 0.00 0.00 0.01 0.01 0.01 0.00 0.01 0.01 0.01 0.01 0.02 0.02 0.01 0.01 0.01 0.02 0.02 0.04 0.03 0.02 0.01 0.01 0.01 0.01 0.00 0.01 0.01 0.01 0.01 0.01 0.01 0.01 0.01 0.01 0.01 0.01 0.01 0.01 0.01 0.01
0.00 0.00 0.00 0.00 0.00 0.00 0.01 0.01 0.01 0.01 0.01 0.01 0.01 0.01 0.01 0.01 0.01 0.01 0.01 0.02 0.03 0.03 0.02 0.01 0.01 0.01 0.01 0.01 0.01 0.01 0.01 0.01 0.01 0.01 0.01 0.01 0.01 0.01 0.01 0.01 0.01 0.01 0.02
0.01 0.01 0.01 0.01 0.00 0.00 0.00 0.01 0.01 0.00 0.00 0.01 0.01 0.01 0.01 0.01 0.01 0.01 0.01 0.01 0.02 0.03 0.03 0.01 0.01 0.01 0.01 0.02 0.02 0.02 0.02 0.03 0.03 0.03 0.02 0.01 0.01 0.01 0.00 0.01 0.02 0.02 0.02
0.01 0.02 0.02 0.01 0.01 0.00 0.00 0.00 0.00 0.00 0.00 0.01 0.00 0.01 0.01 0.01 0.01 0.01 0.01 0.02 0.02 0.03 0.03 0.02 0.02 0.02 0.01 0.02 0.03 0.03 0.02 0.03 0.04 0.04 0.03 0.01 0.01 0.01 0.00 0.01 0.02 0.02 0.02
MSLP
1021.77 1021.78 1021.80 1021.81 1021.78 1021.72 1021.63 1021.54 1021.47 1021.47 1021.54 1021.68 1021.89 1022.12 1022.34 1022.51 1022.58 1022.56 1022.43 1022.24 1022.01 1021.79 1021.63 1021.57 1021.61 1021.77 1022.02 1022.35 1022.73 1023.14 1023.57 1024.02 1024.47 1024.94 1025.41 1025.88 1026.30 1026.67 1026.92 1027.05 1027.02 1026.83 1026.51
1022.00 1022.09 1022.16 1022.19 1022.15 1022.05 1021.93 1021.81 1021.74 1021.75 1021.88 1022.10 1022.39 1022.71 1023.01 1023.22 1023.32 1023.29 1023.15 1022.92 1022.65 1022.41 1022.22 1022.14 1022.17 1022.30 1022.52 1022.79 1023.10 1023.44 1023.79 1024.16 1024.57 1025.02 1025.51 1026.04 1026.57 1027.06 1027.47 1027.76 1027.89 1027.85 1027.66
1022.16 1022.33 1022.46 1022.51 1022.48 1022.36 1022.21 1022.07 1022.00 1022.04 1022.21 1022.50 1022.87 1023.27 1023.63 1023.89 1024.01 1023.99 1023.84 1023.59 1023.31 1023.05 1022.86 1022.77 1022.78 1022.89 1023.06 1023.28 1023.51 1023.75 1024.00 1024.28 1024.61 1025.01 1025.50 1026.06 1026.67 1027.29 1027.84 1028.30 1028.60 1028.72 1028.67
1022.20 1022.46 1022.66 1022.76 1022.75 1022.64 1022.48 1022.33 1022.26 1022.32 1022.53 1022.87 1023.31 1023.77 1024.18 1024.49 1024.64 1024.64 1024.49 1024.25 1023.98 1023.73 1023.54 1023.46 1023.47 1023.56 1023.69 1023.85 1023.99 1024.14 1024.28 1024.46 1024.70 1025.04 1025.49 1026.06 1026.72 1027.42 1028.09 1028.69 1029.14 1029.43 1029.53
1022.12 1022.48 1022.76 1022.93 1022.96 1022.87 1022.72 1022.58 1022.53 1022.61 1022.85 1023.23 1023.71 1024.21 1024.67 1025.01 1025.20 1025.22 1025.10 1024.89 1024.65 1024.42 1024.26 1024.20 1024.22 1024.30 1024.41 1024.51 1024.60 1024.65 1024.70 1024.78 1024.93 1025.19 1025.58 1026.12 1026.78 1027.51 1028.26 1028.96 1029.54 1029.96 1030.20
1021.93 1022.39 1022.77 1023.01 1023.10 1023.06 1022.94 1022.83 1022.79 1022.89 1023.15 1023.56 1024.06 1024.60 1025.09 1025.46 1025.68 1025.75 1025.67 1025.50 1025.30 1025.12 1025.00 1024.97 1025.01 1025.10 1025.20 1025.28 1025.32 1025.31 1025.28 1025.28 1025.34 1025.51 1025.83 1026.30 1026.92 1027.63 1028.39 1029.13 1029.79 1030.30 1030.65
1021.67 1022.22 1022.70 1023.03 1023.19 1023.21 1023.15 1023.07 1023.06 1023.18 1023.45 1023.87 1024.38 1024.93 1025.44 1025.84 1026.10 1026.20 1026.18 1026.06 1025.92 1025.79 1025.73 1025.74 1025.81 1025.92 1026.02 1026.10 1026.12 1026.08 1026.01 1025.94 1025.93 1026.02 1026.24 1026.62 1027.15 1027.79 1028.51 1029.23 1029.91 1030.47 1030.90
1021.38 1022.02 1022.58 1023.00 1023.24 1023.33 1023.32 1023.29 1023.31 1023.46 1023.74 1024.16 1024.67 1025.22 1025.74 1026.16 1026.45 1026.60 1026.62 1026.57 1026.48 1026.42 1026.40 1026.45 1026.56 1026.69 1026.82 1026.91 1026.94 1026.90 1026.81 1026.71 1026.65 1026.66 1026.80 1027.07 1027.48 1028.02 1028.64 1029.30 1029.94 1030.51 1030.98
1021.11 1021.81 1022.44 1022.93 1023.25 1023.41 1023.47 1023.49 1023.56 1023.72 1024.01 1024.42 1024.93 1025.47 1025.98 1026.42 1026.73 1026.91 1026.99 1026.99 1026.96 1026.95 1026.98 1027.07 1027.20 1027.37 1027.52 1027.64 1027.70 1027.69 1027.62 1027.52 1027.43 1027.39 1027.44 1027.61 1027.90 1028.30 1028.81 1029.37 1029.94 1030.49 1030.97
1020.86 1021.60 1022.28 1022.82 1023.21 1023.45 1023.57 1023.65 1023.76 1023.95 1024.24 1024.65 1025.14 1025.66 1026.17 1026.60 1026.94 1027.15 1027.27 1027.32 1027.34 1027.37 1027.43 1027.55 1027.71 1027.90 1028.08 1028.23 1028.33 1028.37 1028.34 1028.27 1028.19 1028.13 1028.13 1028.21 1028.38 1028.66 1029.04 1029.49 1029.98 1030.48 1030.95
1020.63 1021.38 1022.09 1022.67 1023.11 1023.41 1023.60 1023.74 1023.90 1024.12 1024.42 1024.83 1025.30 1025.80 1026.29 1026.72 1027.06 1027.31 1027.46 1027.55 1027.61 1027.67 1027.76 1027.89 1028.06 1028.26 1028.47 1028.65 1028.79 1028.88 1028.92 1028.90 1028.86 1028.81 1028.79 1028.82 1028.91 1029.09 1029.35 1029.69 1030.10 1030.54 1031.00
1020.39 1021.13 1021.83 1022.44 1022.91 1023.26 1023.52 1023.73 1023.94 1024.20 1024.52 1024.92 1025.38 1025.86 1026.34 1026.76 1027.11 1027.37 1027.56 1027.68 1027.78 1027.87 1027.97 1028.11 1028.28 1028.48 1028.70 1028.90 1029.09 1029.23 1029.33 1029.39 1029.40 1029.40 1029.39 1029.40 1029.44 1029.55 1029.73 1029.98 1030.31 1030.70 1031.13
1020.09 1020.79 1021.47 1022.08 1022.58 1022.98 1023.30 1023.57 1023.85 1024.15 1024.51 1024.91 1025.36 1025.83 1026.29 1026.70 1027.06 1027.34 1027.56 1027.73 1027.86 1027.97 1028.09 1028.23 1028.40 1028.60 1028.81 1029.03 1029.24 1029.43 1029.59 1029.71 1029.80 1029.85 1029.88 1029.91 1029.94 1030.02 1030.14 1030.34 1030.61 1030.95 1031.34
1019.67 1020.33 1020.97 1021.56 1022.08 1022.52 1022.90 1023.26 1023.60 1023.96 1024.35 1024.78 1025.22 1025.68 1026.13 1026.54 1026.91 1027.22 1027.48 1027.68 1027.86 1028.01 1028.15 1028.30 1028.46 1028.64 1028.85 1029.06 1029.28 1029.50 1029.71 1029.90 1030.05 1030.17 1030.25 1030.31 1030.37 1030.43 1030.53 1030.69 1030.91 1031.20 1031.55
1019.10 1019.70 1020.29 1020.86 1021.39 1021.88 1022.33 1022.76 1023.18 1023.60 1024.04 1024.49 1024.94 1025.40 1025.85 1026.26 1026.65 1026.99 1027.29 1027.56 1027.78 1027.98 1028.15 1028.32 1028.48 1028.65 1028.84 1029.04 1029.26 1029.49 1029.72 1029.95 1030.15 1030.33 1030.47 1030.58 1030.66 1030.74 1030.83 1030.96 1031.14 1031.39 1031.70
1018.38 1018.90 1019.45 1019.99 1020.53 1021.06 1021.58 1022.08 1022.58 1023.07 1023.56 1024.04 1024.51 1024.98 1025.42 1025.86 1026.26 1026.65 1027.00 1027.33 1027.62 1027.87 1028.09 1028.28 1028.46 1028.62 1028.78 1028.96 1029.16 1029.39 1029.63 1029.87 1030.11 1030.33 1030.52 1030.67 1030.79 1030.89 1030.98 1031.09 1031.24 1031.45 1031.70
1017.50 1017.96 1018.45 1018.97 1019.52 1020.09 1020.67 1021.24 1021.82 1022.38 1022.92 1023.43 1023.93 1024.40 1024.86 1025.31 1025.75 1026.17 1026.59 1026.98 1027.34 1027.66 1027.93 1028.16 1028.34 1028.51 1028.66 1028.81 1028.99 1029.19 1029.42 1029.67 1029.92 1030.17 1030.39 1030.58 1030.73 1030.85 1030.95 1031.05 1031.17 1031.33 1031.53
1016.52 1016.91 1017.35 1017.85 1018.41 1019.01 1019.64 1020.28 1020.92 1021.54 1022.12 1022.67 1023.19 1023.68 1024.15 1024.62 1025.08 1025.55 1026.02 1026.47 1026.90 1027.28 1027.61 1027.88 1028.09 1028.26 1028.40 1028.54 1028.69 1028.86 1029.07 1029.32 1029.58 1029.84 1030.08 1030.30 1030.47 1030.61 1030.72 1030.82 1030.93 1031.05 1031.21
1015.49 1015.81 1016.21 1016.68 1017.24 1017.86 1018.53 1019.22 1019.91 1020.58 1021.20 1021.78 1022.31 1022.82 1023.30 1023.78 1024.27 1024.78 1025.29 1025.79 1026.27 1026.71 1027.09 1027.39 1027.63 1027.81 1027.95 1028.08 1028.22 1028.38 1028.58 1028.81 1029.07 1029.34 1029.61 1029.85 1030.06 1030.22 1030.35 1030.46 1030.55 1030.66 1030.79
1014.46 1014.73 1015.08 1015.53 1016.07 1016.70 1017.39 1018.11 1018.83 1019.53 1020.17 1020.77 1021.32 1021.83 1022.33 1022.82 1023.33 1023.85 1024.39 1024.93 1025.44 1025.91 1026.33 1026.66 1026.92 1027.12 1027.27 1027.41 1027.54 1027.71 1027.91 1028.15 1028.43 1028.72 1029.01 1029.28 1029.52 1029.72 1029.88 1030.01 1030.12 1030.23 1030.35
1013.48 1013.70 1014.00 1014.42 1014.94 1015.55 1016.24 1016.96 1017.69 1018.39 1019.05 1019.66 1020.22 1020.74 1021.24 1021.74 1022.26 1022.79 1023.34 1023.89 1024.42 1024.90 1025.33 1025.68 1025.96 1026.18 1026.35 1026.51 1026.67 1026.85 1027.08 1027.35 1027.66 1027.99 1028.32 1028.63 1028.91 1029.15 1029.35 1029.52 1029.66 1029.79 1029.93
1012.57 1012.74 1013.00 1013.38 1013.86 1014.44 1015.09 1015.79 1016.50 1017.20 1017.85 1018.46 1019.02 1019.55 1020.06 1020.56 1021.08 1021.61 1022.15 1022.70 1023.21 1023.70 1024.12 1024.48 1024.77 1025.01 1025.21 1025.40 1025.61 1025.84 1026.11 1026.43 1026.79 1027.17 1027.55 1027.92 1028.25 1028.54 1028.79 1029.01 1029.19 1029.36 1029.53
1011.75 1011.87 1012.09 1012.41 1012.83 1013.35 1013.95 1014.60 1015.27 1015.94 1016.58 1017.18 1017.74 1018.28 1018.80 1019.31 1019.82 1020.35 1020.87 1021.39 1021.88 1022.34 1022.75 1023.10 1023.40 1023.66 1023.90 1024.14 1024.40 1024.70 1025.04 1025.42 1025.84 1026.28 1026.72 1027.15 1027.54 1027.88 1028.18 1028.45 1028.68 1028.90 1029.11
1011.00 1011.09 1011.25 1011.50 1011.85 1012.30 1012.82 1013.39 1014.00 1014.62 1015.23 1015.82 1016.39 1016.93 1017.46 1017.99 1018.50 1019.02 1019.52 1020.01 1020.47 1020.89 1021.27 1021.61 1021.91 1022.19 1022.47 1022.77 1023.09 1023.46 1023.88 1024.34 1024.83 1025.33 1025.83 1026.30 1026.74 1027.13 1027.48 1027.79 1028.07 1028.33 1028.58
1010.33 1010.37 1010.47 1010.65 1010.91 1011.26 1011.69 1012.17 1012.70 1013.26 1013.83 1014.40 1014.97 1015.53 1016.07 1016.61 1017.13 1017.64 1018.13 1018.58 1019.01 1019.39 1019.74 1020.07 1020.37 1020.67 1020.99 1021.34 1021.73 1022.18 1022.66 1023.19 1023.74 1024.30 1024.84 1025.34 1025.82 1026.24 1026.62 1026.96 1027.28 1027.57 1027.86
1009.71 1009.71 1009.75 1009.85 1010.01 1010.25 1010.57 1010.95 1011.39 1011.87 1012.40 1012.94 1013.50 1014.07 1014.63 1015.19 1015.72 1016.23 1016.70 1017.13 1017.52 1017.88 1018.20 1018.51 1018.82 1019.14 1019.49 1019.89 1020.34 1020.85 1021.39 1021.97 1022.57 1023.15 1023.71 1024.24 1024.72 1025.15 1025.55 1025.91 1026.24 1026.56 1026.87
Thickness
5715 5717 5717 5717 5717 5716 5715 5714 5713 5711 5710 5707 5704 5703 5701 5701 5701 5700 5700 5699 5698 5697 5695 5694 5692 5690 5688 5686 5684 5682 5679 5677 5677 5675 5672 5672 5673 5673 5672 5673 5673 5673 5673
5712 5713 5714 5714 5714 5713 5713 5712 5711 5709 5708 5706 5704 5702 5700 5698 5697 5697 5697 5696 5695 5694 5692 5691 5689 5687 5684 5682 5680 5679 5676 5674 5673 5671 5667 5663 5664 5666 5667 5667 5667 5666 5667
5709 5710 5710 5711 5711 5711 5710 5711 5709 5708 5706 5705 5703 5700 5697 5695 5694 5693 5692 5692 5692 5691 5689 5687 5686 5684 5682 5679 5677 5676 5674 5670 5669 5668 5665 5660 5656 5656 5659 5660 5660 5660 5660
5710 5709 5709 5708 5708 5709 5710 5709 5707 5706 5704 5703 5700 5697 5693 5690 5689 5689 5689 5689 5688 5687 5686 5684 5683 5681 5679 5676 5675 5673 5672 5669 5666 5664 5663 5662 5659 5654 5651 5652 5653 5654 5654
5709 5709 5708 5708 5708 5708 5707 5706 5705 5703 5702 5700 5698 5695 5692 5689 5688 5687 5686 5685 5684 5683 5682 5681 5679 5677 5675 5673 5671 5670 5668 5667 5664 5662 5660 5658 5655 5653 5649 5645 5646 5647 5648
5709 5708 5708 5707 5706 5705 5704 5703 5701 5700 5699 5697 5695 5693 5690 5687 5685 5683 5682 5681 5680 5679 5678 5677 5676 5674 5672 5670 5668 5666 5665 5663 5661 5659 5658 5655 5653 5650 5647 5643 5640 5640 5641
5707 5705 5704 5703 5703 5702 5701 5700 5698 5696 5695 5694 5692 5690 5688 5686 5684 5681 5679 5677 5676 5675 5674 5674 5672 5670 5669 5667 5665 5663 5661 5659 5657 5655 5653 5652 5650 5648 5645 5641 5637 5635 5636
5705 5704 5704 5703 5701 5700 5699 5697 5695 5693 5692 5690 5689 5688 5686 5684 5682 5680 5678 5676 5674 5673 5672 5670 5669 5667 5665 5663 5661 5658 5656 5654 5652 5651 5649 5647 5646 5644 5642 5639 5635 5631 5630
5705 5703 5703 5702 5700 5699 5698 5696 5693 5691 5689 5688 5686 5684 5683 5681 5679 5677 5676 5674 5673 5671 5669 5667 5665 5663 5661 5659 5656 5654 5651 5650 5647 5646 5644 5642 5641 5639 5638 5636 5635 5631 5626
5702 5702 5701 5700 5699 5698 5696 5694 5692 5690 5688 5686 5684 5682 5680 5678 5677 5675 5673 5671 5670 5668 5666 5663 5661 5659 5656 5654 5651 5649 5646 5644 5642 5640 5639 5637 5636 5634 5633 5631 5630 5628 5625
5701 5699 5699 5698 5697 5695 5692 5690 5688 5686 5684 5683 5681 5679 5677 5675 5673 5672 5670 5668 5666 5664 5662 5660 5657 5654 5652 5649 5646 5644 5641 5639 5637 5635 5634 5632 5631 5629 5627 5626 5624 5622 5620
5700 5698 5696 5694 5693 5691 5689 5687 5685 5683 5681 5680 5678 5676 5673 5671 5669 5668 5666 5665 5663 5661 5659 5656 5653 5651 5648 5645 5642 5639 5636 5634 5632 5630 5629 5627 5626 5624 5622 5620 5618 5617 5615
5695 5693 5692 5690 5689 5687 5686 5684 5682 5680 5678 5676 5673 5671 5669 5667 5665 5664 5663 5661 5659 5656 5654 5652 5649 5646 5644 5641 5638 5635 5632 5630 5628 5626 5624 5622 5621 5618 5616 5615 5613 5611 5610
5690 5688 5686 5685 5685 5684 5682 5680 5678 5676 5674 5672 5669 5666 5664 5663 5661 5660 5658 5656 5654 5652 5649 5647 5645 5642 5640 5637 5634 5631 5628 5625 5623 5622 5620 5618 5617 5614 5612 5610 5607 5605 5602
5685 5684 5683 5681 5680 5679 5677 5676 5674 5672 5669 5666 5665 5662 5661 5659 5657 5656 5654 5652 5649 5647 5645 5642 5639 5637 5635 5633 5630 5627 5624 5621 5618 5617 5615 5614 5613 5611 5608 5606 5603 5600 5596
5681 5680 5679 5678 5676 5674 5673 5671 5669 5666 5664 5661 5660 5658 5656 5653 5652 5650 5648 5646 5644 5641 5639 5637 5634 5632 5631 5630 5627 5624 5620 5617 5614 5612 5610 5609 5608 5606 5604 5602 5600 5597 5593
5677 5676 5674 5674 5673 5671 5669 5666 5664 5662 5659 5656 5654 5652 5650 5648 5646 5645 5642 5640 5638 5635 5633 5631 5629 5627 5626 5625 5622 5619 5616 5613 5610 5607 5605 5604 5603 5600 5598 5596 5594 5592 5591
5672 5671 5670 5669 5668 5667 5664 5662 5659 5656 5653 5651 5649 5647 5645 5642 5640 5637 5636 5634 5631 5629 5627 5625 5623 5621 5621 5619 5617 5614 5610 5608 5605 5603 5601 5598 5597 5595 5593 5590 5588 5586 5585
5669 5668 5667 5665 5663 5661 5659 5655 5652 5649 5647 5645 5643 5642 5639 5637 5634 5631 5630 5628 5626 5624 5622 5620 5618 5616 5615 5614 5612 5609 5604 5602 5600 5598 5596 5594 5592 5591 5588 5585 5582 5580 5579
5664 5662 5661 5659 5656 5654 5652 5648 5645 5643 5641 5640 5638 5636 5634 5631 5629 5627 5624 5622 5620 5618 5616 5614 5613 5611 5610 5609 5607 5604 5600 5596 5594 5592 5591 5590 5588 5586 5584 5580 5577 5574 5573
5658 5656 5654 5652 5650 5648 5645 5641 5639 5637 5637 5635 5632 5630 5628 5626 5624 5621 5619 5616 5614 5612 5609 5608 5607 5605 5604 5603 5601 5599 5595 5592 5589 5587 5586 5585 5584 5582 5579 5576 5573 5571 5569
5651 5650 5647 5645 5643 5641 5638 5635 5633 5634 5631 5628 5626 5624 5622 5620 5619 5615 5612 5610 5607 5604 5602 5601 5599 5599 5598 5597 5595 5594 5591 5589 5585 5583 5582 5581 5579 5577 5574 5571 5569 5566 5563
5644 5642 5640 5637 5635 5633 5632 5629 5629 5627 5624 5622 5620 5618 5615 5613 5611 5608 5606 5603 5601 5598 5597 5595 5594 5593 5592 5591 5590 5588 5586 5583 5580 5579 5578 5576 5574 5571 5568 5566 5563 5559 5555
5636 5634 5632 5629 5627 5626 5625 5624 5623 5621 5618 5615 5612 5610 5608 5606 5604 5602 5600 5597 5595 5593 5591 5589 5588 5588 5586 5584 5582 5581 5579 5576 5574 5571 5570 5569 5566 5563 5561 5558 5555 5552 5549
5628 5626 5624 5622 5620 5619 5618 5618 5616 5614 5611 5608 5606 5604 5602 5599 5597 5595 5593 5592 5591 5589 5587 5586 5584 5581 5580 5580 5578 5575 5572 5570 5568 5564 5561 5558 5556 5554 5552 5550 5547 5545 5542
5619 5618 5616 5614 5613 5612 5611 5610 5609 5607 5604 5601 5599 5596 5594 5592 5589 5587 5585 5585 5584 5583 5582 5581 5579 5578 5577 5576 5573 5570 5568 5565 5562 5557 5553 5551 5550 5549 5546 5543 5541 5538 5536